| time (UTC) | temp C | wind direction | speed KPH | gust KPH | rain 1hr cm | rain 24hr cm | rain mn cm | humidity % | barometer mb |
| 20260509102240 | 30 | 170 | 0.0 | 0.0 | 0.00 | 0.00 | 0.00 | 77 | 1008.1 |
| 20260509101737 | 30 | 198 | 0.0 | 0.0 | 0.00 | 0.00 | 0.00 | 76 | 1007.9 |
| 20260509101233 | 30 | 185 | 0.0 | 0.0 | 0.00 | 0.00 | 0.00 | 76 | 1007.8 |
| 20260509100731 | 30 | 158 | 0.0 | 0.0 | 0.00 | 0.00 | 0.00 | 75 | 1007.7 |
| 20260509100228 | 30 | 145 | 0.0 | 0.0 | 0.00 | 0.00 | 0.00 | 74 | 1007.6 |
| 20260509095724 | 30 | 201 | 0.0 | 0.0 | 0.00 | 0.00 | 0.00 | 73 | 1007.5 |
| 20260509095221 | 30 | 201 | 0.0 | 0.0 | 0.00 | 0.00 | 0.00 | 73 | 1007.6 |
| 20260509094718 | 30 | 203 | 0.0 | 0.0 | 0.00 | 0.00 | 0.00 | 72 | 1007.3 |
| 20260509094215 | 31 | 12 | 0.0 | 0.0 | 0.00 | 0.00 | 0.00 | 70 | 1007.3 |
| 20260509093713 | 31 | 57 | 0.0 | 3.2 | 0.00 | 0.00 | 0.00 | 69 | 1007.4 |
| 20260509093210 | 31 | 165 | 0.0 | 0.0 | 0.00 | 0.00 | 0.00 | 70 | 1007.3 |
| 20260509092708 | 31 | 219 | 0.0 | 0.0 | 0.00 | 0.00 | 0.00 | 69 | 1007.5 |
| 20260509092206 | 31 | 198 | 0.0 | 0.0 | 0.00 | 0.00 | 0.00 | 67 | 1007.2 |
| 20260509091704 | 31 | 145 | 1.6 | 1.6 | 0.00 | 0.00 | 0.00 | 67 | 1007.2 |
| 20260509091159 | 31 | 162 | 0.0 | 0.0 | 0.00 | 0.00 | 0.00 | 66 | 1007.2 |
| 20260509090658 | 31 | 284 | 0.0 | 4.8 | 0.00 | 0.00 | 0.00 | 66 | 1007.2 |
| 20260509090155 | 32 | 140 | 0.0 | 0.0 | 0.00 | 0.00 | 0.00 | 64 | 1007.1 |
| 20260509085652 | 33 | 36 | 0.0 | 3.2 | 0.00 | 0.00 | 0.00 | 61 | 1007.0 |
| 20260509085148 | 33 | 336 | 0.0 | 1.6 | 0.00 | 0.00 | 0.00 | 60 | 1007.3 |
| 20260509084646 | 33 | 149 | 1.6 | 3.2 | 0.00 | 0.00 | 0.00 | 60 | 1007.2 |
| 20260509084142 | 33 | 4 | 0.0 | 3.2 | 0.00 | 0.00 | 0.00 | 60 | 1007.2 |
| 20260509083640 | 33 | 183 | 3.2 | 6.4 | 0.00 | 0.00 | 0.00 | 60 | 1007.1 |
| 20260509083136 | 33 | 162 | 0.0 | 4.8 | 0.00 | 0.00 | 0.00 | 60 | 1007.0 |
| 20260509082634 | 34 | 81 | 0.0 | 6.4 | 0.00 | 0.00 | 0.00 | 58 | 1007.4 |
| 20260509082130 | 34 | 170 | 0.0 | 1.6 | 0.00 | 0.00 | 0.00 | 58 | 1007.2 |
| 20260509081627 | 33 | 318 | 3.2 | 3.2 | 0.00 | 0.00 | 0.00 | 59 | 1007.1 |
| 20260509081125 | 35 | 143 | 6.4 | 6.4 | 0.00 | 0.00 | 0.00 | 58 | 1007.2 |
| 20260509080623 | 35 | 200 | 0.0 | 3.2 | 0.00 | 0.00 | 0.00 | 56 | 1007.0 |
| 20260509080120 | 35 | 50 | 3.2 | 3.2 | 0.00 | 0.00 | 0.00 | 56 | 1007.0 |
| 20260509075618 | 35 | 17 | 0.0 | 1.6 | 0.00 | 0.00 | 0.00 | 55 | 1007.0 |
| 20260509075115 | 35 | 282 | 1.6 | 1.6 | 0.00 | 0.00 | 0.00 | 56 | 1007.1 |
| 20260509074612 | 35 | 180 | 1.6 | 1.6 | 0.00 | 0.00 | 0.00 | 55 | 1006.9 |
| 20260509074108 | 36 | 166 | 1.6 | 3.2 | 0.00 | 0.00 | 0.00 | 53 | 1006.9 |
| 20260509073606 | 35 | 294 | 1.6 | 3.2 | 0.00 | 0.00 | 0.00 | 55 | 1006.9 |
| 20260509073102 | 36 | 137 | 1.6 | 3.2 | 0.00 | 0.00 | 0.00 | 55 | 1007.0 |
| 20260509072558 | 35 | 247 | 0.0 | 1.6 | 0.00 | 0.00 | 0.00 | 54 | 1006.6 |
| 20260509072055 | 35 | 43 | 4.8 | 9.7 | 0.00 | 0.00 | 0.00 | 53 | 1006.9 |
| 20260509071552 | 36 | 124 | 0.0 | 1.6 | 0.00 | 0.00 | 0.00 | 53 | 1006.9 |
| 20260509071050 | 36 | 48 | 1.6 | 4.8 | 0.00 | 0.00 | 0.00 | 53 | 1007.0 |
| 20260509070547 | 36 | 206 | 0.0 | 0.0 | 0.00 | 0.00 | 0.00 | 54 | 1006.9 |
| 20260509070043 | 35 | 218 | 1.6 | 4.8 | 0.00 | 0.00 | 0.00 | 55 | 1007.0 |
| 20260509065538 | 35 | 149 | 0.0 | 1.6 | 0.00 | 0.00 | 0.00 | 54 | 1007.1 |
| 20260509065035 | 35 | 184 | 1.6 | 1.6 | 0.00 | 0.00 | 0.00 | 56 | 1007.1 |
| 20260509064533 | 35 | 137 | 3.2 | 6.4 | 0.00 | 0.00 | 0.00 | 58 | 1007.1 |
| 20260509064031 | 35 | 195 | 0.0 | 4.8 | 0.00 | 0.00 | 0.00 | 57 | 1007.2 |
| 20260509063531 | 35 | 220 | 1.6 | 3.2 | 0.00 | 0.00 | 0.00 | 56 | 1006.9 |
| 20260509063029 | 35 | 71 | 4.8 | 6.4 | 0.00 | 0.00 | 0.00 | 55 | 1007.3 |
| 20260509062526 | 35 | 165 | 1.6 | 3.2 | 0.00 | 0.00 | 0.00 | 56 | 1007.2 |
| 20260509062024 | 35 | 254 | 0.0 | 1.6 | 0.00 | 0.00 | 0.00 | 57 | 1007.4 |
| 20260509061520 | 36 | 227 | 3.2 | 3.2 | 0.00 | 0.00 | 0.00 | 54 | 1007.3 |
| 20260509061018 | 36 | 22 | 1.6 | 4.8 | 0.00 | 0.00 | 0.00 | 52 | 1007.3 |
| 20260509060515 | 36 | 356 | 0.0 | 1.6 | 0.00 | 0.00 | 0.00 | 53 | 1007.3 |
| 20260509060011 | 35 | 148 | 3.2 | 4.8 | 0.00 | 0.00 | 0.00 | 54 | 1007.5 |
| 20260509055506 | 35 | 205 | 0.0 | 3.2 | 0.00 | 0.00 | 0.00 | 56 | 1007.4 |
| 20260509055003 | 35 | 351 | 0.0 | 6.4 | 0.00 | 0.00 | 0.00 | 56 | 1007.5 |
| 20260509054459 | 35 | 161 | 1.6 | 3.2 | 0.00 | 0.00 | 0.00 | 54 | 1007.6 |
| 20260509053958 | 36 | 310 | 3.2 | 4.8 | 0.00 | 0.00 | 0.00 | 54 | 1007.8 |
| 20260509053455 | 36 | 13 | 1.6 | 11.3 | 0.00 | 0.00 | 0.00 | 56 | 1007.9 |
| 20260509052952 | 36 | 253 | 3.2 | 3.2 | 0.00 | 0.00 | 0.00 | 54 | 1007.9 |
| 20260509052450 | 36 | 254 | 1.6 | 3.2 | 0.00 | 0.00 | 0.00 | 54 | 1008.0 |
| 20260509051948 | 36 | 348 | 1.6 | 9.7 | 0.00 | 0.00 | 0.00 | 56 | 1008.0 |
| 20260509051445 | 36 | 44 | 1.6 | 4.8 | 0.00 | 0.00 | 0.00 | 54 | 1008.1 |
| 20260509050942 | 36 | 22 | 1.6 | 3.2 | 0.00 | 0.00 | 0.00 | 55 | 1008.2 |
| 20260509050438 | 35 | 350 | 1.6 | 6.4 | 0.00 | 0.00 | 0.00 | 58 | 1008.2 |
| 20260509045935 | 36 | 201 | 1.6 | 3.2 | 0.00 | 0.00 | 0.00 | 56 | 1008.5 |
| 20260509045433 | 36 | 63 | 3.2 | 4.8 | 0.00 | 0.00 | 0.00 | 56 | 1008.3 |
| 20260509044929 | 35 | 171 | 3.2 | 4.8 | 0.00 | 0.00 | 0.00 | 57 | 1008.5 |
| 20260509044428 | 36 | 50 | 0.0 | 1.6 | 0.00 | 0.00 | 0.00 | 56 | 1008.5 |
| 20260509043924 | 36 | 72 | 3.2 | 6.4 | 0.00 | 0.00 | 0.00 | 56 | 1008.5 |
| 20260509043420 | 35 | 175 | 0.0 | 3.2 | 0.00 | 0.00 | 0.00 | 58 | 1008.8 |
| 20260509042916 | 36 | 109 | 1.6 | 6.4 | 0.00 | 0.00 | 0.00 | 57 | 1008.9 |
| 20260509042413 | 36 | 305 | 0.0 | 4.8 | 0.00 | 0.00 | 0.00 | 57 | 1008.9 |
| 20260509041909 | 35 | 281 | 0.0 | 4.8 | 0.00 | 0.00 | 0.00 | 59 | 1008.8 |
| 20260509041406 | 35 | 277 | 3.2 | 4.8 | 0.00 | 0.00 | 0.00 | 59 | 1009.0 |
| 20260509040904 | 35 | 13 | 1.6 | 4.8 | 0.00 | 0.00 | 0.00 | 58 | 1009.1 |
| 20260509040402 | 35 | 267 | 1.6 | 4.8 | 0.00 | 0.00 | 0.00 | 58 | 1009.2 |
| 20260509035858 | 35 | 133 | 3.2 | 6.4 | 0.00 | 0.00 | 0.00 | 59 | 1009.3 |
| 20260509035355 | 35 | 154 | 0.0 | 1.6 | 0.00 | 0.00 | 0.00 | 59 | 1009.3 |
| 20260509034852 | 35 | 175 | 4.8 | 6.4 | 0.00 | 0.00 | 0.00 | 60 | 1009.4 |
| 20260509034349 | 35 | 178 | 1.6 | 3.2 | 0.00 | 0.00 | 0.00 | 60 | 1009.4 |
| 20260509033846 | 34 | 157 | 3.2 | 11.3 | 0.00 | 0.00 | 0.00 | 62 | 1009.3 |
| 20260509033344 | 35 | 244 | 3.2 | 4.8 | 0.00 | 0.00 | 0.00 | 59 | 1009.4 |
| 20260509032840 | 35 | 242 | 0.0 | 3.2 | 0.00 | 0.00 | 0.00 | 62 | 1009.3 |
| 20260509032337 | 35 | 228 | 0.0 | 1.6 | 0.00 | 0.00 | 0.00 | 60 | 1009.6 |
| 20260509031836 | 34 | 182 | 0.0 | 4.8 | 0.00 | 0.00 | 0.00 | 63 | 1009.5 |
| 20260509031332 | 35 | 9 | 1.6 | 16.1 | 0.00 | 0.00 | 0.00 | 62 | 1009.6 |
| 20260509030830 | 35 | 60 | 1.6 | 4.8 | 0.00 | 0.00 | 0.00 | 60 | 1009.6 |
| 20260509030328 | 35 | 340 | 3.2 | 9.7 | 0.00 | 0.00 | 0.00 | 62 | 1009.6 |
| 20260509025824 | 35 | 230 | 0.0 | 1.6 | 0.00 | 0.00 | 0.00 | 59 | 1009.5 |
| 20260509025320 | 35 | 346 | 3.2 | 3.2 | 0.00 | 0.00 | 0.00 | 59 | 1009.7 |
| 20260509024815 | 35 | 337 | 0.0 | 6.4 | 0.00 | 0.00 | 0.00 | 59 | 1009.7 |
| 20260509024312 | 35 | 323 | 1.6 | 4.8 | 0.00 | 0.00 | 0.00 | 58 | 1009.8 |
| 20260509023809 | 35 | 220 | 1.6 | 1.6 | 0.00 | 0.00 | 0.00 | 61 | 1009.8 |
| 20260509023306 | 35 | 38 | 1.6 | 3.2 | 0.00 | 0.00 | 0.00 | 61 | 1009.9 |
| 20260509022802 | 35 | 213 | 0.0 | 6.4 | 0.00 | 0.00 | 0.00 | 62 | 1009.7 |
| 20260509022300 | 34 | 18 | 0.0 | 3.2 | 0.00 | 0.00 | 0.00 | 61 | 1010.2 |
| 20260509021757 | 34 | 203 | 1.6 | 3.2 | 0.00 | 0.00 | 0.00 | 63 | 1010.0 |
| 20260509021254 | 34 | 48 | 1.6 | 4.8 | 0.00 | 0.00 | 0.00 | 61 | 1010.2 |
| 20260509020752 | 35 | 5 | 1.6 | 3.2 | 0.00 | 0.00 | 0.00 | 61 | 1010.1 |
| 20260509020249 | 35 | 236 | 0.0 | 3.2 | 0.00 | 0.00 | 0.00 | 62 | 1009.9 |
| 20260509015747 | 35 | 256 | 0.0 | 1.6 | 0.00 | 0.00 | 0.00 | 61 | 1010.0 |
| 20260509015245 | 34 | 353 | 1.6 | 3.2 | 0.00 | 0.00 | 0.00 | 64 | 1010.2 |
| 20260509014741 | 33 | 336 | 1.6 | 1.6 | 0.00 | 0.00 | 0.00 | 64 | 1010.1 |
| 20260509014238 | 34 | 154 | 0.0 | 4.8 | 0.00 | 0.00 | 0.00 | 65 | 1010.0 |
| 20260509013735 | 33 | 252 | 0.0 | 1.6 | 0.00 | 0.00 | 0.00 | 67 | 1010.4 |
| 20260509013230 | 33 | 198 | 0.0 | 1.6 | 0.00 | 0.00 | 0.00 | 66 | 1010.1 |
| 20260509012727 | 33 | 306 | 1.6 | 1.6 | 0.00 | 0.00 | 0.00 | 66 | 1010.3 |
| 20260509012224 | 33 | 152 | 1.6 | 3.2 | 0.00 | 0.00 | 0.00 | 67 | 1010.4 |
| 20260509011721 | 32 | 152 | 0.0 | 1.6 | 0.00 | 0.00 | 0.00 | 68 | 1010.3 |
| 20260509011219 | 32 | 144 | 3.2 | 3.2 | 0.00 | 0.00 | 0.00 | 68 | 1010.2 |
| 20260509010717 | 33 | 34 | 1.6 | 4.8 | 0.00 | 0.00 | 0.00 | 68 | 1010.3 |
| 20260509010212 | 33 | 52 | 0.0 | 3.2 | 0.00 | 0.00 | 0.00 | 67 | 1010.0 |
| 20260509005710 | 33 | 161 | 0.0 | 3.2 | 0.00 | 0.00 | 0.00 | 66 | 1010.1 |
| 20260509005207 | 33 | 193 | 0.0 | 1.6 | 0.00 | 0.00 | 0.00 | 67 | 1010.0 |
| 20260509004702 | 32 | 215 | 0.0 | 1.6 | 0.00 | 0.00 | 0.00 | 69 | 1010.0 |
| 20260509004200 | 32 | 119 | 0.0 | 1.6 | 0.00 | 0.00 | 0.00 | 71 | 1010.1 |
| 20260509003658 | 32 | 220 | 0.0 | 0.0 | 0.00 | 0.00 | 0.00 | 70 | 1010.3 |
| 20260509003155 | 32 | 216 | 0.0 | 0.0 | 0.00 | 0.00 | 0.00 | 72 | 1010.2 |
| 20260509002652 | 32 | 8 | 0.0 | 3.2 | 0.00 | 0.00 | 0.00 | 72 | 1010.2 |
| 20260509002149 | 32 | 267 | 0.0 | 0.0 | 0.00 | 0.00 | 0.00 | 71 | 1010.2 |
| 20260509001647 | 32 | 191 | 0.0 | 1.6 | 0.00 | 0.00 | 0.00 | 71 | 1010.1 |
| 20260509001142 | 32 | 155 | 0.0 | 1.6 | 0.00 | 0.00 | 0.00 | 71 | 1010.1 |
| 20260509000641 | 31 | 139 | 0.0 | 1.6 | 0.00 | 0.00 | 0.00 | 72 | 1010.0 |
| 20260509000137 | 31 | 332 | 0.0 | 1.6 | 0.00 | 0.00 | 0.00 | 75 | 1009.7 |
| 20260508235635 | 30 | 332 | 0.0 | 0.0 | 0.00 | 0.00 | 0.00 | 78 | 1009.9 |
| 20260508235131 | 30 | 268 | 0.0 | 0.0 | 0.00 | 0.00 | 0.00 | 79 | 1010.0 |
| 20260508234629 | 30 | 258 | 0.0 | 1.6 | 0.00 | 0.00 | 0.00 | 79 | 1009.7 |
| 20260508234125 | 30 | 198 | 0.0 | 0.0 | 0.00 | 0.00 | 0.00 | 81 | 1009.8 |
| 20260508233624 | 29 | 274 | 0.0 | 0.0 | 0.00 | 0.00 | 0.00 | 83 | 1010.0 |
| 20260508233122 | 29 | 275 | 0.0 | 0.0 | 0.00 | 0.00 | 0.00 | 85 | 1009.9 |
| 20260508232619 | 29 | 275 | 0.0 | 0.0 | 0.00 | 0.00 | 0.00 | 85 | 1009.8 |
| 20260508232115 | 28 | 142 | 0.0 | 1.6 | 0.00 | 0.00 | 0.00 | 84 | 1009.8 |
| 20260508231613 | 28 | 142 | 0.0 | 0.0 | 0.00 | 0.00 | 0.00 | 87 | 1009.8 |
| 20260508231110 | 28 | 244 | 0.0 | 0.0 | 0.00 | 0.00 | 0.00 | 87 | 1009.7 |
| 20260508230606 | 28 | 221 | 0.0 | 0.0 | 0.00 | 0.00 | 0.00 | 88 | 1009.6 |
| 20260508225601 | 27 | 221 | 0.0 | 0.0 | 0.00 | 0.00 | 0.00 | 89 | 1009.5 |
| 20260508225057 | 27 | 221 | 0.0 | 0.0 | 0.00 | 0.00 | 0.00 | 90 | 1009.3 |
| 20260508224555 | 27 | 221 | 0.0 | 0.0 | 0.00 | 0.00 | 0.00 | 90 | 1009.2 |
| 20260508224052 | 27 | 221 | 0.0 | 0.0 | 0.00 | 0.00 | 0.00 | 90 | 1009.3 |
| 20260508223550 | 27 | 221 | 0.0 | 0.0 | 0.00 | 0.00 | 0.00 | 91 | 1009.1 |
| 20260508223046 | 27 | 221 | 0.0 | 0.0 | 0.00 | 0.00 | 0.00 | 91 | 1009.2 |
| 20260508222544 | 27 | 221 | 0.0 | 0.0 | 0.00 | 0.00 | 0.00 | 91 | 1009.2 |
| 20260508222041 | 27 | 221 | 0.0 | 0.0 | 0.00 | 0.00 | 0.00 | 92 | 1009.2 |
| 20260508221537 | 26 | 221 | 0.0 | 0.0 | 0.00 | 0.00 | 0.00 | 92 | 1009.1 |
| 20260508221033 | 26 | 221 | 0.0 | 0.0 | 0.00 | 0.00 | 0.00 | 92 | 1008.8 |
| 20260508220530 | 26 | 221 | 0.0 | 0.0 | 0.00 | 0.00 | 0.00 | 92 | 1008.8 |
| 20260508220026 | 26 | 221 | 0.0 | 0.0 | 0.00 | 0.00 | 0.00 | 92 | 1008.8 |
| 20260508215523 | 26 | 221 | 0.0 | 0.0 | 0.00 | 0.00 | 0.00 | 92 | 1008.6 |
| 20260508215020 | 26 | 221 | 0.0 | 0.0 | 0.00 | 0.00 | 0.00 | 92 | 1008.6 |
| 20260508214517 | 26 | 221 | 0.0 | 0.0 | 0.00 | 0.00 | 0.00 | 92 | 1008.5 |
| 20260508214013 | 26 | 221 | 0.0 | 0.0 | 0.00 | 0.00 | 0.00 | 92 | 1008.6 |
| 20260508213511 | 26 | 221 | 0.0 | 0.0 | 0.00 | 0.00 | 0.00 | 92 | 1008.5 |
| 20260508213007 | 26 | 221 | 0.0 | 1.6 | 0.00 | 0.00 | 0.00 | 92 | 1008.5 |
| 20260508212503 | 26 | 221 | 0.0 | 0.0 | 0.00 | 0.00 | 0.00 | 92 | 1008.5 |
| 20260508211959 | 26 | 221 | 0.0 | 0.0 | 0.00 | 0.00 | 0.00 | 92 | 1008.3 |
| 20260508211455 | 26 | 221 | 0.0 | 0.0 | 0.00 | 0.00 | 0.00 | 92 | 1008.4 |
| 20260508210952 | 26 | 221 | 0.0 | 0.0 | 0.00 | 0.00 | 0.00 | 92 | 1008.3 |
| 20260508210448 | 26 | 221 | 0.0 | 0.0 | 0.00 | 0.00 | 0.00 | 92 | 1008.0 |
| 20260508205945 | 26 | 221 | 0.0 | 0.0 | 0.00 | 0.00 | 0.00 | 92 | 1008.3 |
| 20260508205442 | 26 | 221 | 0.0 | 0.0 | 0.00 | 0.00 | 0.00 | 92 | 1008.0 |
| 20260508204938 | 26 | 221 | 0.0 | 0.0 | 0.00 | 0.00 | 0.00 | 92 | 1008.2 |
| 20260508204436 | 26 | 231 | 0.0 | 0.0 | 0.00 | 0.00 | 0.00 | 92 | 1008.0 |
| 20260508203931 | 26 | 231 | 0.0 | 0.0 | 0.00 | 0.00 | 0.00 | 92 | 1008.0 |
| 20260508203428 | 26 | 231 | 0.0 | 0.0 | 0.00 | 0.00 | 0.00 | 92 | 1008.0 |
| 20260508202923 | 26 | 232 | 0.0 | 0.0 | 0.00 | 0.00 | 0.00 | 92 | 1007.8 |
| 20260508202421 | 26 | 234 | 0.0 | 0.0 | 0.00 | 0.00 | 0.00 | 92 | 1008.0 |
| 20260508201918 | 26 | 234 | 0.0 | 0.0 | 0.00 | 0.00 | 0.00 | 92 | 1007.8 |
| 20260508201415 | 26 | 234 | 0.0 | 0.0 | 0.00 | 0.00 | 0.00 | 92 | 1008.1 |
| 20260508200911 | 26 | 234 | 0.0 | 0.0 | 0.00 | 0.00 | 0.00 | 92 | 1007.7 |
| 20260508200408 | 26 | 234 | 0.0 | 0.0 | 0.00 | 0.00 | 0.00 | 91 | 1007.8 |
| 20260508195903 | 26 | 234 | 0.0 | 0.0 | 0.00 | 0.00 | 0.00 | 91 | 1007.8 |
| 20260508195401 | 26 | 241 | 0.0 | 0.0 | 0.00 | 0.00 | 0.00 | 91 | 1008.0 |
| 20260508194857 | 26 | 269 | 0.0 | 0.0 | 0.00 | 0.00 | 0.00 | 91 | 1008.0 |
| 20260508194354 | 26 | 269 | 0.0 | 0.0 | 0.00 | 0.00 | 0.00 | 91 | 1007.8 |
| 20260508193851 | 26 | 269 | 0.0 | 0.0 | 0.00 | 0.00 | 0.00 | 90 | 1008.0 |
| 20260508193348 | 26 | 269 | 0.0 | 0.0 | 0.00 | 0.00 | 0.00 | 90 | 1007.9 |
| 20260508192844 | 26 | 269 | 0.0 | 0.0 | 0.00 | 0.00 | 0.00 | 90 | 1007.8 |
| 20260508192341 | 26 | 278 | 0.0 | 0.0 | 0.00 | 0.00 | 0.00 | 90 | 1007.7 |
| 20260508191838 | 26 | 278 | 0.0 | 0.0 | 0.00 | 0.00 | 0.00 | 90 | 1007.9 |
| 20260508191335 | 26 | 278 | 0.0 | 0.0 | 0.00 | 0.00 | 0.00 | 90 | 1007.9 |
| 20260508190832 | 26 | 279 | 0.0 | 0.0 | 0.00 | 0.00 | 0.00 | 90 | 1008.2 |
| 20260508190329 | 26 | 279 | 0.0 | 0.0 | 0.00 | 0.00 | 0.00 | 90 | 1008.0 |
| 20260508185825 | 27 | 280 | 0.0 | 0.0 | 0.00 | 0.00 | 0.00 | 90 | 1007.8 |
| 20260508185323 | 26 | 260 | 0.0 | 0.0 | 0.00 | 0.00 | 0.00 | 90 | 1008.0 |
| 20260508184820 | 26 | 260 | 0.0 | 0.0 | 0.00 | 0.00 | 0.00 | 90 | 1007.9 |
| 20260508184317 | 26 | 260 | 0.0 | 0.0 | 0.00 | 0.00 | 0.00 | 90 | 1008.0 |
| 20260508183814 | 26 | 260 | 0.0 | 0.0 | 0.00 | 0.00 | 0.00 | 90 | 1008.0 |
| 20260508183311 | 26 | 260 | 0.0 | 0.0 | 0.00 | 0.00 | 0.00 | 90 | 1008.2 |
| 20260508182806 | 26 | 260 | 0.0 | 0.0 | 0.00 | 0.00 | 0.00 | 90 | 1008.0 |
| 20260508182306 | 26 | 260 | 0.0 | 0.0 | 0.00 | 0.00 | 0.00 | 90 | 1008.3 |
| 20260508181759 | 26 | 260 | 0.0 | 0.0 | 0.00 | 0.00 | 0.00 | 90 | 1008.3 |
| 20260508181256 | 26 | 260 | 0.0 | 0.0 | 0.00 | 0.00 | 0.00 | 89 | 1008.3 |
| 20260508180753 | 26 | 260 | 0.0 | 0.0 | 0.00 | 0.00 | 0.00 | 89 | 1008.1 |
| 20260508180250 | 27 | 260 | 0.0 | 0.0 | 0.00 | 0.00 | 0.00 | 89 | 1008.4 |
| 20260508175746 | 26 | 260 | 0.0 | 0.0 | 0.00 | 0.00 | 0.00 | 89 | 1008.3 |
| 20260508175242 | 26 | 260 | 0.0 | 0.0 | 0.00 | 0.00 | 0.00 | 89 | 1008.3 |
| 20260508174741 | 27 | 260 | 0.0 | 0.0 | 0.00 | 0.00 | 0.00 | 89 | 1008.5 |
| 20260508174238 | 27 | 259 | 0.0 | 0.0 | 0.00 | 0.00 | 0.00 | 89 | 1008.4 |
| 20260508173734 | 27 | 259 | 0.0 | 0.0 | 0.00 | 0.00 | 0.00 | 89 | 1008.6 |
| 20260508173230 | 27 | 260 | 0.0 | 1.6 | 0.00 | 0.00 | 0.00 | 88 | 1008.6 |
| 20260508172727 | 27 | 260 | 0.0 | 0.0 | 0.00 | 0.00 | 0.00 | 89 | 1008.4 |
| 20260508172224 | 27 | 260 | 0.0 | 0.0 | 0.00 | 0.00 | 0.00 | 89 | 1008.7 |
| 20260508171720 | 27 | 260 | 0.0 | 0.0 | 0.00 | 0.00 | 0.00 | 89 | 1008.6 |
| 20260508171217 | 27 | 261 | 0.0 | 0.0 | 0.00 | 0.00 | 0.00 | 88 | 1008.5 |
| 20260508170714 | 27 | 257 | 0.0 | 0.0 | 0.00 | 0.00 | 0.00 | 89 | 1008.7 |
| 20260508170212 | 27 | 215 | 0.0 | 0.0 | 0.00 | 0.00 | 0.00 | 89 | 1008.7 |
| 20260508165708 | 27 | 215 | 0.0 | 0.0 | 0.00 | 0.00 | 0.00 | 88 | 1008.8 |
| 20260508165206 | 27 | 215 | 0.0 | 0.0 | 0.00 | 0.00 | 0.00 | 88 | 1009.0 |
| 20260508164702 | 27 | 169 | 0.0 | 0.0 | 0.00 | 0.00 | 0.00 | 88 | 1008.8 |
| 20260508164159 | 27 | 169 | 0.0 | 0.0 | 0.00 | 0.00 | 0.00 | 88 | 1008.8 |
| 20260508163657 | 27 | 166 | 0.0 | 0.0 | 0.00 | 0.00 | 0.00 | 88 | 1008.8 |
| 20260508163154 | 27 | 166 | 0.0 | 0.0 | 0.00 | 0.00 | 0.00 | 87 | 1008.6 |
| 20260508162649 | 27 | 170 | 0.0 | 0.0 | 0.00 | 0.00 | 0.00 | 87 | 1008.9 |
| 20260508162146 | 27 | 171 | 0.0 | 0.0 | 0.00 | 0.00 | 0.00 | 86 | 1008.9 |
| 20260508161643 | 27 | 151 | 0.0 | 0.0 | 0.00 | 0.00 | 0.00 | 87 | 1009.1 |
| 20260508161141 | 27 | 151 | 0.0 | 0.0 | 0.00 | 0.00 | 0.00 | 87 | 1009.1 |
| 20260508160639 | 27 | 152 | 0.0 | 0.0 | 0.00 | 0.00 | 0.00 | 87 | 1009.2 |
| 20260508160136 | 27 | 151 | 0.0 | 0.0 | 0.00 | 0.00 | 0.00 | 87 | 1009.0 |
| 20260508155634 | 27 | 150 | 0.0 | 0.0 | 0.00 | 0.00 | 0.00 | 86 | 1009.0 |
| 20260508155130 | 27 | 151 | 0.0 | 0.0 | 0.00 | 0.00 | 0.00 | 86 | 1009.2 |
| 20260508154627 | 27 | 151 | 0.0 | 0.0 | 0.00 | 0.00 | 0.00 | 86 | 1009.1 |
| 20260508154123 | 27 | 127 | 0.0 | 0.0 | 0.00 | 0.00 | 0.00 | 86 | 1009.3 |
| 20260508153621 | 27 | 124 | 0.0 | 0.0 | 0.00 | 0.00 | 0.00 | 86 | 1009.5 |
| 20260508153117 | 27 | 124 | 0.0 | 0.0 | 0.00 | 0.00 | 0.00 | 85 | 1009.6 |
| 20260508152614 | 27 | 118 | 0.0 | 0.0 | 0.00 | 0.00 | 0.00 | 85 | 1009.4 |
| 20260508152109 | 27 | 156 | 0.0 | 0.0 | 0.00 | 0.00 | 0.00 | 86 | 1009.5 |
| 20260508151607 | 27 | 139 | 0.0 | 0.0 | 0.00 | 0.00 | 0.00 | 86 | 1009.3 |
| 20260508151104 | 27 | 44 | 0.0 | 0.0 | 0.00 | 0.00 | 0.00 | 86 | 1009.5 |
| 20260508150601 | 27 | 208 | 0.0 | 0.0 | 0.00 | 0.00 | 0.00 | 86 | 1009.5 |
| 20260508150057 | 27 | 172 | 0.0 | 0.0 | 0.00 | 0.00 | 0.00 | 86 | 1009.5 |
| 20260508145553 | 27 | 164 | 0.0 | 0.0 | 0.00 | 0.00 | 0.00 | 86 | 1009.3 |
| 20260508145050 | 27 | 114 | 0.0 | 0.0 | 0.00 | 0.00 | 0.00 | 86 | 1009.5 |
| 20260508144548 | 27 | 167 | 0.0 | 0.0 | 0.00 | 0.00 | 0.00 | 86 | 1009.5 |
| 20260508144044 | 27 | 167 | 0.0 | 0.0 | 0.00 | 0.00 | 0.00 | 86 | 1009.7 |
| 20260508143542 | 27 | 165 | 0.0 | 0.0 | 0.00 | 0.00 | 0.00 | 85 | 1009.5 |
| 20260508143038 | 27 | 168 | 0.0 | 0.0 | 0.00 | 0.00 | 0.00 | 85 | 1009.4 |
| 20260508142535 | 27 | 178 | 0.0 | 1.6 | 0.00 | 0.00 | 0.00 | 84 | 1009.5 |
| 20260508142032 | 27 | 213 | 0.0 | 0.0 | 0.00 | 0.00 | 0.00 | 85 | 1009.5 |
| 20260508141528 | 27 | 223 | 0.0 | 0.0 | 0.00 | 0.00 | 0.00 | 86 | 1009.6 |
| 20260508141026 | 27 | 224 | 0.0 | 0.0 | 0.00 | 0.00 | 0.00 | 85 | 1009.7 |
| 20260508140523 | 27 | 224 | 0.0 | 0.0 | 0.00 | 0.00 | 0.00 | 85 | 1009.7 |
| 20260508140020 | 27 | 224 | 0.0 | 0.0 | 0.00 | 0.00 | 0.00 | 85 | 1009.7 |
| 20260508135515 | 27 | 229 | 0.0 | 1.6 | 0.00 | 0.00 | 0.00 | 85 | 1009.8 |
| 20260508135012 | 27 | 223 | 0.0 | 0.0 | 0.00 | 0.00 | 0.00 | 85 | 1009.7 |
| 20260508134508 | 27 | 226 | 0.0 | 0.0 | 0.00 | 0.00 | 0.00 | 85 | 1009.8 |
| 20260508134006 | 27 | 173 | 0.0 | 1.6 | 0.00 | 0.00 | 0.00 | 85 | 1009.5 |
| 20260508133503 | 27 | 201 | 0.0 | 0.0 | 0.00 | 0.00 | 0.00 | 86 | 1009.7 |
| 20260508132959 | 27 | 201 | 0.0 | 0.0 | 0.00 | 0.00 | 0.00 | 86 | 1009.6 |
| 20260508132457 | 27 | 201 | 0.0 | 0.0 | 0.00 | 0.00 | 0.00 | 86 | 1009.6 |
| 20260508131954 | 27 | 201 | 0.0 | 0.0 | 0.00 | 0.00 | 0.00 | 86 | 1009.5 |
| 20260508131449 | 27 | 201 | 0.0 | 0.0 | 0.00 | 0.00 | 0.00 | 86 | 1009.5 |
| 20260508130946 | 27 | 201 | 0.0 | 0.0 | 0.00 | 0.00 | 0.00 | 86 | 1009.6 |
| 20260508130444 | 27 | 202 | 0.0 | 0.0 | 0.00 | 0.00 | 0.00 | 85 | 1009.6 |
| 20260508125939 | 27 | 202 | 0.0 | 0.0 | 0.00 | 0.00 | 0.00 | 85 | 1009.4 |
| 20260508125435 | 27 | 206 | 0.0 | 0.0 | 0.00 | 0.00 | 0.00 | 84 | 1009.4 |
| 20260508124933 | 27 | 206 | 0.0 | 0.0 | 0.00 | 0.00 | 0.00 | 84 | 1009.4 |
| 20260508124431 | 27 | 206 | 0.0 | 0.0 | 0.00 | 0.00 | 0.00 | 84 | 1009.5 |
| 20260508123928 | 27 | 197 | 0.0 | 0.0 | 0.00 | 0.00 | 0.00 | 84 | 1009.3 |
| 20260508123427 | 27 | 197 | 0.0 | 0.0 | 0.00 | 0.00 | 0.00 | 83 | 1009.2 |
| 20260508122923 | 27 | 198 | 0.0 | 0.0 | 0.00 | 0.00 | 0.00 | 83 | 1009.2 |
| 20260508122420 | 27 | 202 | 0.0 | 0.0 | 0.00 | 0.00 | 0.00 | 82 | 1009.2 |
| 20260508121917 | 27 | 203 | 0.0 | 0.0 | 0.00 | 0.00 | 0.00 | 82 | 1009.2 |
| 20260508121415 | 27 | 202 | 0.0 | 0.0 | 0.00 | 0.00 | 0.00 | 82 | 1009.3 |
| 20260508120912 | 27 | 214 | 0.0 | 0.0 | 0.00 | 0.00 | 0.00 | 82 | 1009.3 |
| 20260508120410 | 27 | 222 | 0.0 | 0.0 | 0.00 | 0.00 | 0.00 | 82 | 1009.2 |
| 20260508115907 | 27 | 191 | 0.0 | 0.0 | 0.00 | 0.00 | 0.00 | 82 | 1009.0 |
| 20260508115405 | 28 | 189 | 0.0 | 0.0 | 0.00 | 0.00 | 0.00 | 81 | 1008.9 |
| 20260508114901 | 28 | 167 | 0.0 | 0.0 | 0.00 | 0.00 | 0.00 | 82 | 1008.6 |
| 20260508114358 | 28 | 187 | 0.0 | 0.0 | 0.00 | 0.00 | 0.00 | 83 | 1008.7 |
| 20260508113855 | 28 | 183 | 0.0 | 0.0 | 0.00 | 0.00 | 0.00 | 83 | 1008.4 |
| 20260508113353 | 28 | 182 | 0.0 | 0.0 | 0.00 | 0.00 | 0.00 | 84 | 1008.4 |
| 20260508112850 | 28 | 183 | 0.0 | 0.0 | 0.00 | 0.00 | 0.00 | 83 | 1008.5 |
| 20260508112347 | 28 | 181 | 0.0 | 0.0 | 0.00 | 0.00 | 0.00 | 84 | 1008.4 |
| 20260508111843 | 28 | 181 | 0.0 | 0.0 | 0.00 | 0.00 | 0.00 | 84 | 1008.7 |
| 20260508111340 | 28 | 195 | 0.0 | 0.0 | 0.00 | 0.00 | 0.00 | 83 | 1008.5 |
| 20260508110837 | 28 | 186 | 0.0 | 0.0 | 0.00 | 0.00 | 0.00 | 83 | 1008.4 |
| 20260508110335 | 28 | 186 | 0.0 | 0.0 | 0.00 | 0.00 | 0.00 | 83 | 1008.2 |
| 20260508105835 | 28 | 186 | 0.0 | 0.0 | 0.00 | 0.00 | 0.00 | 84 | 1008.4 |
| 20260508105331 | 28 | 186 | 0.0 | 0.0 | 0.00 | 0.00 | 0.00 | 83 | 1008.2 |
| 20260508104828 | 28 | 148 | 0.0 | 0.0 | 0.00 | 0.00 | 0.00 | 82 | 1008.4 |
| 20260508104325 | 28 | 186 | 0.0 | 0.0 | 0.00 | 0.00 | 0.00 | 82 | 1008.2 |
| 20260508103822 | 28 | 186 | 0.0 | 0.0 | 0.00 | 0.00 | 0.00 | 82 | 1008.2 |
| 20260508103319 | 28 | 186 | 0.0 | 0.0 | 0.00 | 0.00 | 0.00 | 82 | 1008.2 |
| 20260508102817 | 28 | 185 | 0.0 | 0.0 | 0.00 | 0.00 | 0.00 | 82 | 1008.2 |